www.pogodaiklimat.ru

Погода и климат >> Архив погоды >> Россия >> Ненецкий АО >> Индига


АРХИВ ПОГОДЫ в Индиге

Время (UTC), дата Ветер
(напр.,м/с)
 
Видим.   Явления Облачность Т
(С)
Тd
(С)
f
(%)
Тe
(С)
Тes
(С)
Комфортность P
(гПа)
Po
(гПа)
Тmin
(С)
Tmax
(С)
R
(мм)
R24
(мм)
S
(см)
12 11.06 СВ 10-14
{15}
10 км слаб. ливневой дождь 10/10 300 м
[Cb cap]
+4.4 +3.2 92 -2 -2 1008.9 1008.4
15 11.06 СВ 12-15
{16}
10 км слаб. ливневой дождь 10/10 300 м
[Cb cap]
+3.1 +1.8 91 -5 -5 1010.6 1010.1 +5.3 2
18 11.06 СВ 11-13
{15}
10 км {ливн. осадки} 9/9 300 м
[St]
+2.6 -0.4 81 -5 -5 1012.5 1012.0
21 11.06 С 9-12
{13}
10 км 9/9 300 м
[Cb cap]
+2.3 -0.5 82 -5 -5 1013.1 1012.6
00 12.06 С 9-12
{13}
10 км 9/9 300 м
[Cb cap]
+2.6 +1.0 89 -5 -5 1013.4 1012.9
03 12.06 С 11-13
{14}
10 км в посл. час ливневой дождь 10/10 300 м
[Cb cap]
+2.4 +1.1 91 -5 -5 1013.3 1012.8 +1.9 0.3
06 12.06 СЗ 10-12
{14}
10 км {ливн. осадки} 9/9 300 м
[Cb cap]
+2.5 +1.1 90 -5 -5 1014.0 1013.5
09 12.06 СЗ 9-12
{13}
20 км 9/4 300 м
[Cb cap Ac trans]
+3.0 +1.1 87 -4 -4 1015.0 1014.5
12 12.06 СЗ 10-13
{13}
10 км 9/8 300 м
[Cb cap Ac trans]
+3.2 +0.8 84 -4 -4 1016.2 1015.7
15 12.06 СЗ 12-15
{16}
10 км 10/10 300 м
[Cb cap]
+2.8 +1.0 88 -5 -5 1017.0 1016.5 +3.4 0.0
18 12.06 С 12-16
{16}
10 км {морось} 10/10 300 м
[St]
+2.6 +0.8 88 -5 -5 1017.4 1016.9
21 12.06 СЗ 12-15
{17}
10 км 10/10 300 м
[St]
+2.4 +0.8 89 -6 -6 1017.5 1017.0
00 13.06 СЗ 12-17
{18}
10 км 10/10 300 м
[St]
+2.4 +0.3 86 -6 -6 1017.4 1016.9
03 13.06 СЗ 14-17
{19}
10 км 10/10 300 м
[St]
+2.5 +0.4 86 -6 -6 1017.6 1017.1 +2.3 0.0
06 13.06 СЗ 13-16
{19}
10 км 10/10 300 м
[St]
+2.6 +0.4 85 -6 -6 1018.3 1017.8
09 13.06 СЗ 10-14
{16}
4000 м дымка 10/10 300 м
[St]
+2.9 +0.5 84 -4 -4 1019.4 1018.9
12 13.06 СЗ 11-15
{16}
10 км 10/10 300 м
[St]
+3.0 +0.6 84 -4 -4 1019.3 1018.8
15 13.06 СЗ 11-15
{15}
10 км 10/10 600 м
[Sc]
+2.8 +0.4 84 -5 -5 1019.0 1018.5 +3.0
18 13.06 С 12-15
{16}
10 км 10/10 300 м
[St]
+2.4 +0.2 85 -6 -6 1017.7 1017.2
21 13.06 СЗ 10-12
{15}
4000 м слаб. морось 10/10 300 м
[St]
+2.2 +0.5 89 -5 -5 1016.6 1016.1
00 14.06 СЗ 10-13
{14}
10 км {морось} 10/10 300 м
[St]
+2.1 +0.5 89 -5 -5 1015.7 1015.2
03 14.06 СЗ 9-12
{13}
10 км 10/10 300 м
[St]
+2.3 +0.1 85 -5 -5 1015.1 1014.6 +2.0 0.0
06 14.06 СЗ 6
{12}
20 км 9/9 600 м
[Sc]
+3.7 +0.5 80 -2 -1 1014.6 1014.1
09 14.06 СЗ 7 20 км 9/5 300 м
[Cb cap Cs]
+4.6 +2.1 84 -1 0 1013.9 1013.4
12 14.06 З 6 20 км 9/3 300 м
[Cb cap Ac As Cs]
+4.6 +1.5 80 -1 +1 1012.8 1012.3
15 14.06 З 5 10 км слаб. дождь 10/10 300 м
[Frnb Ns]
+4.0 +1.7 85 -1 -1 1010.7 1010.2 +5.0 0.0
18 14.06 З 7 10 км слаб. дождь 10/10 300 м
[Frnb Ns]
+4.1 +2.6 90 -2 -2 1008.2 1007.7
21 14.06 СЗ 8-11
{11}
2000 м слаб. морось {дождь} 10/10 300 м
[St]
+3.5 +3.0 97 -3 -3 1006.8 1006.3
00 15.06 СЗ 9-11
{12}
10 км в посл. час дождь {морось} 10/10 300 м
[St]
+2.6 +2.1 97 -5 -5 1006.3 1005.8
03 15.06 С 9-11
{11}
4000 м дымка {ливн. осадки} 10/10 300 м
[St]
+2.6 +1.6 93 -5 -5 1006.3 1005.8 +2.6 0.7
06 15.06 СЗ 9-11
{13}
10 км {ливн. осадки} 9/9 300 м
[Cb cap]
+2.9 +1.3 89 -4 -4 1007.1 1006.6 +2.1
09 15.06 СЗ 9-11
{12}
20 км 9/9 300 м
[Cb cap]
+3.5 +1.6 87 -3 -3 1007.8 1007.3
12 15.06 СЗ 9-12
{12}
10 км 10/10 300 м
[Cb cap]
+3.3 +0.9 84 -3 -3 1008.6 1008.1
15 15.06 З 9-12
{14}
10 км слаб. дождь 10/10 300 м
[Frnb Ns]
+3.7 +3.0 95 -3 -3 1007.5 1007.0 +3.7 0.0
18 15.06 СЗ 10-13
{14}
10 км слаб. дождь 10/10 300 м
[Frnb Ns]
+4.1 +3.4 95 -3 -3 1005.9 1005.4
21 15.06 З 8-10
{13}
10 км слаб. дождь 10/10 300 м
[Frnb Ns]
+4.0 +3.3 95 -2 -2 1004.2 1003.7
00 16.06 З 8-11
{12}
10 км в посл. час дождь 10/10 300 м
[St]
+3.9 +3.4 97 -3 -3 1001.7 1001.2
03 16.06 З 7-10
{13}
4000 м дымка {дождь} 10/10 300 м
[St]
+4.4 +3.9 97 -2 -2 999.9 999.4 +3.7 2
06 16.06 СЗ 7-10
{11}
2000 м дымка {дождь} 10/10 300 м
[St]
+4.5 +4.0 97 -1 -1 999.3 998.8
09 16.06 СЗ 7
{13}
10 км {морось} 10/10 300 м
[St]
+4.2 +3.0 92 -2 -2 1000.7 1000.2
12 16.06 СЗ 10-13
{14}
10 км {морось} 10/10 300 м
[St]
+4.4 +2.4 87 -2 -2 1001.5 1001.0
15 16.06 СЗ 9-12
{14}
10 км 10/10 300 м
[St]
+4.2 +2.6 89 -2 -2 1001.5 1001.0 +4.8 0.0
18 16.06 СЗ 9-12
{13}
4000 м дымка 10/10 300 м
[St]
+4.0 +2.2 88 -3 -3 1001.3 1000.8
21 16.06 СЗ 10-13
{16}
4000 м слаб. дождь 10/10 300 м
[Frnb Ns]
+3.4 +2.3 92 -4 -4 1000.6 1000.1
00 17.06 СЗ 9-12
{14}
4000 м дымка {дождь} 10/10 300 м
[St]
+3.8 +2.0 88 -3 -3 1000.1 999.6
03 17.06 СЗ 9-13
{14}
10 км 10/10 300 м
[St]
+3.6 +1.8 88 -3 -3 1000.2 999.7 +3.2 0.3
06 17.06 СЗ 11-14
{15}
10 км 10/10 300 м
[St]
+3.6 +1.5 86 -4 -4 1001.0 1000.5
09 17.06 СЗ 10-13
{14}
10 км слаб. ливневой дождь 10/10 300 м
[Cb cap]
+3.8 +2.2 89 -3 -3 1002.1 1001.6
12 17.06 З 7-10
{13}
10 км {ливн. осадки} 10/10 300 м
[St]
+4.3 +2.2 86 -2 -2 1003.0 1002.5
15 17.06 З 8-12
{13}
10 км слаб. ливневой дождь 10/10 300 м
[Cb cap]
+3.8 +3.1 95 -3 -3 1003.3 1002.8 +4.4 0.4
18 17.06 СЗ 9-12
{13}
10 км {ливн. осадки} 8/6 300 м
[Cb cap Ac trans Ci fib]
+3.8 +1.8 87 -3 -3 1002.8 1002.3
21 17.06 СЗ 10-14
{15}
10 км 10/10 300 м
[St]
+3.5 +1.8 89 -4 -4 1002.4 1001.9
00 18.06 СЗ 10-14
{14}
10 км в посл. час ливневой дождь 9/9 300 м
[Cb cap]
+2.7 +1.3 90 -5 -5 1002.6 1002.1
03 18.06 СЗ 9-12
{14}
10 км 9/9 300 м
[Cb cap]
+3.3 -0.5 76 -3 -3 1003.4 1002.9 +2.6 0.0
06 18.06 СЗ 8-10
{12}
20 км 9/9 300 м
[Cb cap]
+3.2 +0.8 84 -3 -3 1004.7 1004.2
09 18.06 СЗ 6
{10}
20 км 9/9 300 м
[Cb cap]
+3.8 +0.9 81 -2 -1 1006.3 1005.8

 

Местоположение метеостанции Индига (Ненецкий АО, Россия): широта 67.68 долгота 48.68 высота над уровнем моря 4 м.

В архиве по умолчанию представлена погода в Индиге за последнюю неделю. Архивные данные за месяц целиком и за предыдущие месяцы, начиная с января 2011 года, Вы можете получить, выбрав интересующий диапазон дат из раскрывающегося списка и нажав кнопку "Ввод!".


*Определитесь, кто Вы:
робот инопланетянин человек

Внимание! Время в таблицах - всемирное. Для получения местного времени необходимо прибавить поправку, которая равна 3 ч.

Смотрите также архив погоды в соседних городах и на ближайших метеорологических станциях:

Погода на Мысе Микулкин (Ненецкий АО, Россия) (86 км)
Погода в Нижней Пеше (Ненецкий АО, Россия) (111 км)
Погода в Коткино (Ненецкий АО, Россия) (127 км)
Погода в Бугрино (Ненецкий АО, Россия) (127 км)
Погода в Сенгейском Шаре (Ненецкий АО, Россия) (139 км)
Погода в Нарьян-Маре (Ненецкий АО, Россия) (184 км)
Погода в Шойне (Ненецкий АО, Россия) (191 км)
Погода на Колгуевом Острове (Ненецкий АО, Россия) (206 км)
Погода в Неси (Ненецкий АО, Россия) (210 км)
Погода в Окуневом Носу (Коми, Россия) (233 км)

Пояснения к столбцам:

Ветер - указаны скорость ветра в м/с - средняя за 10 мин, порывы в срок и между сроками (в фигурных скобках) и направление, откуда дует ветер: С - северный, СВ - северо-восточный, В - восточный, ЮВ - юго-восточный, Ю - южный, ЮЗ - юго-западный, З - западный, СЗ - северо-западный.
Видимость - горизонтальная дальность видимости в метрах или километрах. При видимости от 1 до 10 км при отсутствии осадков обычно наблюдается дымка, при ухудшении видимости до 1 км и менее - туман. В сухую погоду видимость может ухудшаться дымом, пылью или мглою.
Явления - указаны атмосферные явления, наблюдавшиеся в срок или в последний час перед сроком; фигурными скобками обозначены явления, наблюдавшиеся между сроками (за 1-3 часа до срока); квадратными скобками обозначены град или гололедные отложения с указанием их диаметра в мм.
Облачность - указаны через наклонную черту общая и нижняя облачность в баллах и высота нижней границы облаков в метрах; квадратными скобками обозначены формы облаков: Ci - перистые, Cs - перисто-слоистые, Cc - перисто-кучевые, Ac - высококучевые, As - высокослоистые, Sc - слоисто-кучевые, Ns - слоисто-дождевые, Cu - кучевые, Cb - кучево-дождевые. Подробнее классификацию облаков см. в Атласе облаков (PDF).
T - Температура воздуха - температура, измеренная на высоте 2 м над землей.
Td - Температура точки росы - температура, при понижении до которой содержащийся в воздухе водяной пар достигнет насыщения.
f - Относительная влажность воздуха - влажноcть воздуха, измеренная на высоте 2 м над землей.
Te - Эффективная температура - температура, которую ощущает одетый по сезону человек в тени. Характеристика душности погоды. При расчете учитывается влияние влажности воздуха и скорости ветра на теплоощущения человека.
Tes - Эффективная температура на солнце - температура, которую ощущает человек, с поправкой на солнечный нагрев. Характеристика знойности погоды. Зависит от высоты солнца над горизонтом, облачности и скорости ветра. Ночью, в пасмурную погоду, а также при ветре 12 м/с и более поправка равна нулю.
P - Атмосферное давление - приведенное к уровню моря атмосферное давление.
Po - Атмосферное давление - измеренное на уровне метеостанции атмосферное давление.
Tmin - Минимальная температура - минимум температуры воздуха на высоте 2 м над землей.
Tmax - Максимальная температура - максимум температуры воздуха на высоте 2 м над землей.
R - Количество осадков - Количество выпавших осадков за период времени, мм. При наведении курсора мыши на число - период времени, за который выпало указанное количество осадков.
R24 - Количество осадков - Количество выпавших осадков за 24 часа, мм.
S - Снежный покров - Высота снежного покрова, см. При наведении курсора мыши на число - состояние снежного покрова и степень покрытия местности в баллах.